Regional Weather Roundup
Issued by NWS

Home | Current Version | Previous Version | Text Only | Print | Product List | Glossary On
Versions: 1 2 3 4 5 6 7 8 9 10 11 12 13 14 15 16 17 18 19 20 21 22 23 24 25 26 27
000
ASUS45 KBOI 010510
RWRID
WEATHER ROUNDUP FOR IDAHO
NATIONAL WEATHER SERVICE BOISE ID
1100 PM MDT FRI OCT 31 2014

NOTE: "FAIR" INDICATES FEW OR NO CLOUDS BELOW 12000 FEET
WITH NO SIGNIFICANT WEATHER AND/OR OBSTRUCTIONS TO VISIBILITY

IDZ012-014-010600-
SOUTHWEST IDAHO


CITY           SKY/WX    TMP DP  RH WIND       PRES   REMARKS
BOISE          MOCLDY    52  40  63 W5        29.65S
CALDWELL       MOCLDY    46  36  66 W7        29.67S
MOUNTAIN HOME  CLOUDY    49  32  51 VRB2      29.63F
$$

IDZ016-017-010600-
SOUTHCENTRAL IDAHO


CITY           SKY/WX    TMP DP  RH WIND       PRES   REMARKS
BURLEY         CLOUDY    51  34  52 NE3       29.70F
JEROME         NOT AVBL
TWIN FALLS     NOT AVBL
$$

IDZ019>023-010600-
SOUTHEAST IDAHO


CITY           SKY/WX    TMP DP  RH WIND       PRES   REMARKS
IDAHO FALLS    NOT AVBL
POCATELLO      CLEAR     50  28  42 N6        29.78F
REXBURG        NOT AVBL
$$

IDZ006-010-011-018-031-032-010600-
CENTRAL IDAHO MOUNTAINS


CITY           SKY/WX    TMP DP  RH WIND       PRES   REMARKS
MCCALL         NOT AVBL
HAILEY         PTCLDY   N/A N/A N/A NW12      29.81F
STANLEY          N/A     31  24  75 CALM      29.83F
SALMON         CLEAR     41  34  75 CALM      29.76S
CHALLIS        NOT AVBL
$$

IDZ002-004-006-007-026-010600-
NORTHERN IDAHO


CITY           SKY/WX    TMP DP  RH WIND       PRES   REMARKS
LEWISTON       NOT AVBL
LOWELL           N/A     50  48  93 NW3       29.78S
COEUR D`ALENE  CLOUDY    48  46  93 CALM      29.79S
MULLAN PASS    NOT AVBL
$$



USA.gov is the U.S. government's official web portal to all federal, state and local government web resources and services.